Location: ??
(30.4792°N, 114.2544°E)
Time: 11:34:44
(UTC+00:00)

CZ-4 R/B - Pass Details

Date: 07 June 2020
Orbit: 531 x 599 km, 97.8° (Epoch: 07 July)

Event Time Altitude Azimuth Distance (km) Brightness Sun altitude
Rises 11:46:51 0° 197° (SSW) 2,826 4.8 -5.2°
Reaches altitude 10° 11:49:25 10° 213° (SSW) 1,929 4.1 -5.7°
Maximum altitude 11:52:40 22° 264° (W) 1,335 4.1 -6.3°
Drops below altitude 10° 11:55:54 10° 314° (NW) 1,933 5.7 -6.9°
Sets 11:58:30 0° 330° (NNW) 2,833 6.2 -7.4°
